DENGJ ENHD-ENNO

Flight info

Callsign DENGJ
Flight time 1h 11m
Altitude 9000
Route ODINU DCT HE
Aircraft DA40/L-SDGRY/S

Departure

Time 2026-05-05 19:13
Airport Haugesund Airport, Karmøy (ENHD)

Arrival

Time 2026-05-05 20:25
Airport Notodden Airport (ENNO)
Time Latitude Longitude Altitude Speed Heading
2026-05-05 18:56 59.34514 5.21423 81 ft 0 kts 12°
2026-05-05 19:07 59.34517 5.21442 81 ft 2 kts 158°
2026-05-05 19:07 59.34491 5.21416 82 ft 4 kts 202°
2026-05-05 19:07 59.34469 5.21404 83 ft 5 kts 187°
2026-05-05 19:07 59.34437 5.21429 82 ft 7 kts 138°
2026-05-05 19:08 59.34394 5.21515 81 ft 10 kts 134°
2026-05-05 19:08 59.34342 5.21618 81 ft 12 kts 133°
2026-05-05 19:08 59.34294 5.21728 81 ft 8 kts 134°
2026-05-05 19:08 59.34271 5.21792 81 ft 5 kts 107°
2026-05-05 19:09 59.34256 5.21844 81 ft 4 kts 132°
2026-05-05 19:09 59.34229 5.21898 81 ft 7 kts 136°
2026-05-05 19:09 59.34200 5.21944 81 ft 3 kts 169°
2026-05-05 19:09 59.34170 5.21934 81 ft 4 kts 214°
2026-05-05 19:10 59.34148 5.21894 81 ft 4 kts 225°
2026-05-05 19:10 59.34146 5.21890 84 ft 0 kts 224°
2026-05-05 19:11 59.34104 5.21811 80 ft 10 kts 224°
2026-05-05 19:12 59.34076 5.21752 79 ft 2 kts 246°
2026-05-05 19:12 59.34078 5.21737 81 ft 0 kts 311°
2026-05-05 19:12 59.34156 5.21577 80 ft 43 kts 315°
2026-05-05 19:13 59.34463 5.20964 163 ft 69 kts 310°
2026-05-05 19:13 59.34771 5.20289 397 ft 69 kts 310°
2026-05-05 19:13 59.35060 5.19537 636 ft 69 kts 304°
2026-05-05 19:13 59.35396 5.18796 863 ft 74 kts 322°
2026-05-05 19:14 59.35783 5.18168 1118 ft 71 kts 314°
2026-05-05 19:14 59.36159 5.17520 1332 ft 73 kts 314°
2026-05-05 19:14 59.36538 5.16849 1527 ft 73 kts 313°
2026-05-05 19:14 59.36912 5.16166 1730 ft 73 kts 313°
2026-05-05 19:15 59.37282 5.15477 1919 ft 75 kts 312°
2026-05-05 19:15 59.37718 5.14790 2050 ft 88 kts 333°
2026-05-05 19:15 59.38336 5.14765 2262 ft 92 kts 16°
2026-05-05 19:15 59.38821 5.15581 2487 ft 95 kts 58°
2026-05-05 19:16 59.39068 5.16786 2715 ft 96 kts 68°
2026-05-05 19:16 59.39304 5.18010 2917 ft 96 kts 67°
2026-05-05 19:16 59.39549 5.19233 3133 ft 96 kts 66°
2026-05-05 19:16 59.39797 5.20455 3351 ft 97 kts 66°
2026-05-05 19:17 59.40050 5.21680 3562 ft 97 kts 66°
2026-05-05 19:17 59.40305 5.22907 3776 ft 97 kts 65°
2026-05-05 19:17 59.40561 5.24137 3994 ft 97 kts 65°
2026-05-05 19:17 59.40819 5.25372 4207 ft 98 kts 65°
2026-05-05 19:18 59.41077 5.26609 4422 ft 98 kts 65°
2026-05-05 19:18 59.41337 5.27850 4637 ft 98 kts 65°
2026-05-05 19:18 59.41597 5.29096 4857 ft 99 kts 65°
2026-05-05 19:18 59.41858 5.30345 5075 ft 99 kts 65°
2026-05-05 19:19 59.42120 5.31600 5289 ft 99 kts 65°
2026-05-05 19:19 59.42383 5.32860 5515 ft 100 kts 65°
2026-05-05 19:19 59.42647 5.34124 5728 ft 100 kts 65°
2026-05-05 19:19 59.42912 5.35392 5944 ft 100 kts 65°
2026-05-05 19:20 59.43177 5.36665 6148 ft 101 kts 66°
2026-05-05 19:20 59.43444 5.37941 6356 ft 101 kts 66°
2026-05-05 19:20 59.43709 5.39220 6565 ft 101 kts 66°
2026-05-05 19:20 59.43975 5.40503 6785 ft 102 kts 66°
2026-05-05 19:21 59.44241 5.41765 7394 ft 101 kts 60°
2026-05-05 19:21 59.44503 5.43033 7642 ft 100 kts 60°
2026-05-05 19:21 59.44767 5.44312 7863 ft 102 kts 60°
2026-05-05 19:21 59.45035 5.45603 8082 ft 102 kts 59°
2026-05-05 19:22 59.45304 5.46901 8301 ft 103 kts 59°
2026-05-05 19:22 59.45575 5.48209 8520 ft 104 kts 59°
2026-05-05 19:22 59.45848 5.49527 8747 ft 104 kts 59°
2026-05-05 19:22 59.46122 5.50852 8977 ft 105 kts 59°
2026-05-05 19:23 59.46419 5.52273 9026 ft 121 kts 60°
2026-05-05 19:23 59.46750 5.53897 9023 ft 132 kts 62°
2026-05-05 19:23 59.47100 5.55625 9022 ft 139 kts 62°
2026-05-05 19:23 59.47466 5.57418 9021 ft 143 kts 62°
2026-05-05 19:24 59.47841 5.59244 9021 ft 145 kts 62°
2026-05-05 19:24 59.48219 5.61087 9025 ft 146 kts 62°
2026-05-05 19:24 59.48604 5.62956 9005 ft 148 kts 63°
2026-05-05 19:24 59.48989 5.64832 9006 ft 148 kts 63°
2026-05-05 19:25 59.49375 5.66714 9005 ft 148 kts 63°
2026-05-05 19:25 59.49759 5.68586 9002 ft 147 kts 63°
2026-05-05 19:25 59.50141 5.70447 9002 ft 146 kts 62°
2026-05-05 19:25 59.50524 5.72314 8999 ft 147 kts 62°
2026-05-05 19:26 59.50909 5.74196 9004 ft 149 kts 63°
2026-05-05 19:26 59.51295 5.76077 8995 ft 147 kts 63°
2026-05-05 19:26 59.51670 5.77929 8999 ft 145 kts 63°
2026-05-05 19:26 59.52046 5.79784 8997 ft 146 kts 63°
2026-05-05 19:27 59.52427 5.81646 8998 ft 147 kts 63°
2026-05-05 19:27 59.52806 5.83501 8998 ft 146 kts 62°
2026-05-05 19:27 59.53182 5.85348 8999 ft 144 kts 63°
2026-05-05 19:27 59.53550 5.87168 9003 ft 142 kts 63°
2026-05-05 19:28 59.53918 5.88979 9001 ft 143 kts 63°
2026-05-05 19:28 59.54287 5.90796 9001 ft 143 kts 63°
2026-05-05 19:28 59.54655 5.92608 8995 ft 142 kts 62°
2026-05-05 19:28 59.55016 5.94392 8989 ft 138 kts 62°
2026-05-05 19:29 59.55362 5.96114 8996 ft 137 kts 62°
2026-05-05 19:29 59.55716 5.97858 8995 ft 137 kts 62°
2026-05-05 19:29 59.56070 5.99593 8993 ft 136 kts 62°
2026-05-05 19:29 59.56413 6.01302 8996 ft 132 kts 62°
2026-05-05 19:30 59.56758 6.03007 8995 ft 136 kts 62°
2026-05-05 19:30 59.57113 6.04756 8997 ft 139 kts 62°
2026-05-05 19:30 59.57474 6.06548 8995 ft 142 kts 63°
2026-05-05 19:30 59.57840 6.08370 8991 ft 143 kts 63°
2026-05-05 19:31 59.58206 6.10199 8992 ft 143 kts 63°
2026-05-05 19:31 59.58575 6.12037 8996 ft 145 kts 63°
2026-05-05 19:31 59.58947 6.13900 8997 ft 148 kts 64°
2026-05-05 19:31 59.59330 6.15812 8993 ft 151 kts 63°
2026-05-05 19:32 59.59719 6.17715 8994 ft 149 kts 63°
2026-05-05 19:32 59.60096 6.19622 8989 ft 149 kts 63°
2026-05-05 19:32 59.60472 6.21518 8997 ft 149 kts 63°
2026-05-05 19:32 59.60849 6.23410 8997 ft 148 kts 63°
2026-05-05 19:33 59.61229 6.25311 8997 ft 150 kts 63°
2026-05-05 19:33 59.61609 6.27217 8993 ft 149 kts 63°
2026-05-05 19:33 59.61987 6.29112 8992 ft 147 kts 63°
2026-05-05 19:33 59.62361 6.30994 8994 ft 147 kts 63°
2026-05-05 19:34 59.62735 6.32876 8997 ft 147 kts 63°
2026-05-05 19:34 59.63109 6.34764 8999 ft 148 kts 63°
2026-05-05 19:34 59.63484 6.36671 9002 ft 150 kts 63°
2026-05-05 19:35 59.64255 6.40532 8991 ft 152 kts 63°
2026-05-05 19:35 59.64635 6.42452 8991 ft 152 kts 64°
2026-05-05 19:35 59.65015 6.44388 8990 ft 150 kts 63°
2026-05-05 19:35 59.65394 6.46308 8986 ft 150 kts 63°
2026-05-05 19:36 59.65771 6.48219 8986 ft 149 kts 63°
2026-05-05 19:36 59.66143 6.50097 8997 ft 145 kts 64°
2026-05-05 19:36 59.66512 6.51993 8996 ft 149 kts 63°
2026-05-05 19:36 59.66890 6.53910 8999 ft 150 kts 63°
2026-05-05 19:37 59.67269 6.55840 8995 ft 151 kts 63°
2026-05-05 19:37 59.67646 6.57754 8997 ft 149 kts 63°
2026-05-05 19:37 59.68020 6.59676 8999 ft 151 kts 63°
2026-05-05 19:37 59.68241 6.61719 8989 ft 155 kts 86°
2026-05-05 19:38 59.68208 6.63845 8989 ft 155 kts 89°
2026-05-05 19:38 59.68156 6.65985 8989 ft 156 kts 89°
2026-05-05 19:38 59.68105 6.68120 8988 ft 154 kts 88°
2026-05-05 19:38 59.68060 6.70227 8985 ft 153 kts 89°
2026-05-05 19:39 59.68012 6.72324 8988 ft 153 kts 89°
2026-05-05 19:39 59.67962 6.74422 8986 ft 151 kts 88°
2026-05-05 19:39 59.67916 6.76477 8990 ft 151 kts 89°
2026-05-05 19:39 59.67867 6.78571 8992 ft 154 kts 89°
2026-05-05 19:40 59.67819 6.80689 8987 ft 154 kts 89°
2026-05-05 19:40 59.67770 6.82795 8987 ft 154 kts 89°
2026-05-05 19:40 59.67722 6.84929 8981 ft 154 kts 89°
2026-05-05 19:40 59.67671 6.87024 8985 ft 153 kts 89°
2026-05-05 19:41 59.67621 6.89120 8981 ft 152 kts 89°
2026-05-05 19:41 59.67571 6.91199 8982 ft 151 kts 89°
2026-05-05 19:41 59.67522 6.93267 8984 ft 151 kts 89°
2026-05-05 19:41 59.67472 6.95343 8981 ft 151 kts 89°
2026-05-05 19:42 59.67422 6.97417 8989 ft 152 kts 89°
2026-05-05 19:42 59.67370 6.99526 8986 ft 154 kts 89°
2026-05-05 19:42 59.67319 7.01611 8986 ft 154 kts 89°
2026-05-05 19:42 59.67266 7.03726 8986 ft 154 kts 89°
2026-05-05 19:43 59.67213 7.05865 8982 ft 153 kts 89°
2026-05-05 19:43 59.67160 7.07963 8980 ft 153 kts 89°
2026-05-05 19:43 59.67107 7.10054 8980 ft 152 kts 89°
2026-05-05 19:43 59.67054 7.12147 8983 ft 153 kts 89°
2026-05-05 19:44 59.67000 7.14255 8986 ft 154 kts 89°
2026-05-05 19:44 59.66945 7.16352 8984 ft 155 kts 89°
2026-05-05 19:44 59.66889 7.18501 8985 ft 154 kts 89°
2026-05-05 19:44 59.66834 7.20592 8980 ft 153 kts 89°
2026-05-05 19:45 59.66779 7.22688 8984 ft 153 kts 89°
2026-05-05 19:45 59.66725 7.24788 8982 ft 153 kts 89°
2026-05-05 19:45 59.66669 7.26891 8982 ft 153 kts 89°
2026-05-05 19:45 59.66613 7.28988 8980 ft 152 kts 89°
2026-05-05 19:46 59.66557 7.31075 8984 ft 152 kts 89°
2026-05-05 19:46 59.66500 7.33160 8976 ft 152 kts 89°
2026-05-05 19:46 59.66443 7.35245 8981 ft 153 kts 89°
2026-05-05 19:46 59.66404 7.36671 8978 ft 154 kts 89°
2026-05-05 19:47 59.66346 7.38771 8979 ft 153 kts 89°
2026-05-05 19:47 59.66288 7.40864 8979 ft 152 kts 89°
2026-05-05 19:47 59.66230 7.42951 8973 ft 151 kts 89°
2026-05-05 19:47 59.66173 7.45007 8984 ft 150 kts 89°
2026-05-05 19:48 59.66115 7.47074 8984 ft 151 kts 89°
2026-05-05 19:48 59.66056 7.49142 8984 ft 151 kts 89°
2026-05-05 19:48 59.65999 7.51214 8988 ft 152 kts 89°
2026-05-05 19:48 59.65938 7.53302 8985 ft 152 kts 89°
2026-05-05 19:49 59.65877 7.55391 8980 ft 152 kts 89°
2026-05-05 19:49 59.65816 7.57482 8984 ft 153 kts 89°
2026-05-05 19:49 59.65757 7.59587 8985 ft 154 kts 89°
2026-05-05 19:49 59.65695 7.61703 8980 ft 154 kts 89°
2026-05-05 19:50 59.65633 7.63820 8984 ft 154 kts 89°
2026-05-05 19:50 59.65571 7.65926 8984 ft 153 kts 89°
2026-05-05 19:50 59.65507 7.68000 8982 ft 153 kts 90°
2026-05-05 19:50 59.65446 7.70058 8977 ft 149 kts 90°
2026-05-05 19:51 59.65385 7.72114 8980 ft 150 kts 89°
2026-05-05 19:51 59.65323 7.74192 8982 ft 152 kts 90°
2026-05-05 19:51 59.65259 7.76263 8974 ft 149 kts 90°
2026-05-05 19:51 59.65197 7.78296 8980 ft 148 kts 89°
2026-05-05 19:52 59.65135 7.80331 8973 ft 148 kts 90°
2026-05-05 19:52 59.65073 7.82382 8984 ft 151 kts 90°
2026-05-05 19:52 59.65008 7.84466 8979 ft 152 kts 90°
2026-05-05 19:52 59.64941 7.86558 8974 ft 152 kts 90°
2026-05-05 19:53 59.64876 7.88642 8978 ft 152 kts 90°
2026-05-05 19:53 59.64810 7.90731 8986 ft 153 kts 90°
2026-05-05 19:53 59.64744 7.92838 8977 ft 154 kts 90°
2026-05-05 19:53 59.64677 7.94943 8980 ft 153 kts 90°
2026-05-05 19:54 59.64610 7.97043 8978 ft 153 kts 90°
2026-05-05 19:54 59.64544 7.99132 8979 ft 152 kts 90°
2026-05-05 19:54 59.64475 8.01220 8979 ft 152 kts 90°
2026-05-05 19:54 59.64407 8.03319 8978 ft 154 kts 90°
2026-05-05 19:55 59.64338 8.05430 8981 ft 154 kts 90°
2026-05-05 19:55 59.64269 8.07549 8984 ft 155 kts 90°
2026-05-05 19:55 59.64199 8.09673 8982 ft 155 kts 90°
2026-05-05 19:55 59.64129 8.11797 8976 ft 155 kts 90°
2026-05-05 19:56 59.64058 8.13921 8976 ft 154 kts 90°
2026-05-05 19:56 59.63987 8.16028 8976 ft 153 kts 90°
2026-05-05 19:56 59.63918 8.18127 8978 ft 153 kts 90°
2026-05-05 19:56 59.63847 8.20225 8977 ft 153 kts 90°
2026-05-05 19:57 59.63776 8.22329 8974 ft 154 kts 90°
2026-05-05 19:57 59.63703 8.24444 8970 ft 154 kts 90°
2026-05-05 19:57 59.63631 8.26535 8969 ft 152 kts 90°
2026-05-05 19:57 59.63560 8.28617 8974 ft 152 kts 90°
2026-05-05 19:58 59.63488 8.30713 8976 ft 153 kts 90°
2026-05-05 19:58 59.63414 8.32822 8976 ft 154 kts 90°
2026-05-05 19:58 59.63340 8.34939 8976 ft 155 kts 90°
2026-05-05 19:58 59.63266 8.37054 8973 ft 153 kts 90°
2026-05-05 19:59 59.63193 8.39156 8971 ft 153 kts 90°
2026-05-05 19:59 59.63117 8.41252 8973 ft 153 kts 90°
2026-05-05 19:59 59.63043 8.43353 8970 ft 153 kts 90°
2026-05-05 19:59 59.62969 8.45444 8973 ft 153 kts 90°
2026-05-05 20:00 59.62893 8.47533 8971 ft 153 kts 91°
2026-05-05 20:00 59.62816 8.49628 8971 ft 153 kts 90°
2026-05-05 20:00 59.62739 8.51722 8977 ft 153 kts 91°
2026-05-05 20:00 59.62664 8.53816 8974 ft 153 kts 91°
2026-05-05 20:01 59.62589 8.55915 8975 ft 153 kts 91°
2026-05-05 20:01 59.62513 8.58011 8975 ft 153 kts 91°
2026-05-05 20:01 59.62435 8.60101 8976 ft 153 kts 91°
2026-05-05 20:01 59.62358 8.62194 8978 ft 153 kts 91°
2026-05-05 20:02 59.62280 8.64292 8968 ft 153 kts 91°
2026-05-05 20:02 59.62201 8.66382 8963 ft 152 kts 91°
2026-05-05 20:02 59.62125 8.68451 8966 ft 151 kts 91°
2026-05-05 20:02 59.62047 8.70524 8966 ft 151 kts 91°
2026-05-05 20:03 59.61968 8.72607 8969 ft 152 kts 91°
2026-05-05 20:03 59.61889 8.74679 8965 ft 150 kts 91°
2026-05-05 20:03 59.61811 8.76733 8966 ft 150 kts 91°
2026-05-05 20:03 59.61735 8.78770 8960 ft 147 kts 91°
2026-05-05 20:04 59.61657 8.80785 8967 ft 148 kts 91°
2026-05-05 20:04 59.61578 8.82829 8969 ft 150 kts 91°
2026-05-05 20:04 59.61499 8.84868 8969 ft 152 kts 91°
2026-05-05 20:04 59.61417 8.86961 8969 ft 153 kts 91°
2026-05-05 20:05 59.61335 8.89061 8971 ft 154 kts 91°
2026-05-05 20:05 59.61253 8.91137 8958 ft 153 kts 91°
2026-05-05 20:05 59.61170 8.93256 8958 ft 153 kts 91°
2026-05-05 20:05 59.61088 8.95345 8960 ft 153 kts 91°
2026-05-05 20:06 59.61005 8.97440 8959 ft 153 kts 91°
2026-05-05 20:06 59.60840 8.99522 8954 ft 155 kts 108°
2026-05-05 20:06 59.60247 9.01274 8954 ft 155 kts 139°
2026-05-05 20:06 59.59391 9.02541 8957 ft 154 kts 147°
2026-05-05 20:07 59.58516 9.03755 8956 ft 154 kts 147°
2026-05-05 20:07 59.57640 9.04971 8958 ft 154 kts 147°
2026-05-05 20:07 59.56777 9.06175 8944 ft 154 kts 147°
2026-05-05 20:07 59.55903 9.07396 8945 ft 153 kts 147°
2026-05-05 20:08 59.55037 9.08608 8949 ft 152 kts 147°
2026-05-05 20:08 59.54173 9.09815 8952 ft 153 kts 147°
2026-05-05 20:08 59.53304 9.11028 8949 ft 153 kts 147°
2026-05-05 20:08 59.52432 9.12245 8949 ft 154 kts 147°
2026-05-05 20:09 59.51567 9.13460 8943 ft 152 kts 148°
2026-05-05 20:09 59.50705 9.14656 8947 ft 151 kts 148°
2026-05-05 20:09 59.49846 9.15848 8946 ft 151 kts 148°
2026-05-05 20:09 59.48989 9.17037 8786 ft 151 kts 148°
2026-05-05 20:10 59.48127 9.18223 8538 ft 150 kts 148°
2026-05-05 20:10 59.47288 9.19385 8379 ft 145 kts 147°
2026-05-05 20:10 59.46461 9.20537 8150 ft 147 kts 147°
2026-05-05 20:10 59.45624 9.21698 7907 ft 147 kts 147°
2026-05-05 20:11 59.44785 9.22861 7666 ft 148 kts 147°
2026-05-05 20:11 59.43947 9.24023 7425 ft 147 kts 147°
2026-05-05 20:11 59.43112 9.25182 7184 ft 147 kts 147°
2026-05-05 20:11 59.42281 9.26332 6946 ft 144 kts 147°
2026-05-05 20:12 59.41488 9.27424 6732 ft 134 kts 147°
2026-05-05 20:12 59.40739 9.28461 6526 ft 130 kts 147°
2026-05-05 20:12 59.40011 9.29469 6321 ft 127 kts 147°
2026-05-05 20:12 59.39289 9.30467 6107 ft 127 kts 146°
2026-05-05 20:13 59.38578 9.31449 5909 ft 124 kts 146°
2026-05-05 20:13 59.37874 9.32423 5707 ft 124 kts 146°
2026-05-05 20:13 59.37167 9.33400 5504 ft 125 kts 145°
2026-05-05 20:13 59.36451 9.34387 5294 ft 127 kts 145°
2026-05-05 20:14 59.35731 9.35390 5085 ft 128 kts 141°
2026-05-05 20:14 59.35235 9.36760 4873 ft 122 kts 106°
2026-05-05 20:14 59.35197 9.38342 4749 ft 113 kts 72°
2026-05-05 20:14 59.35550 9.39668 4673 ft 109 kts 47°
2026-05-05 20:15 59.36031 9.40830 4595 ft 112 kts 46°
2026-05-05 20:15 59.36528 9.42031 4517 ft 114 kts 46°
2026-05-05 20:15 59.37028 9.43246 4433 ft 114 kts 46°
2026-05-05 20:15 59.37526 9.44457 4348 ft 114 kts 46°
2026-05-05 20:16 59.38022 9.45667 4259 ft 113 kts 46°
2026-05-05 20:16 59.38513 9.46862 4181 ft 111 kts 47°
2026-05-05 20:16 59.39013 9.48010 4101 ft 110 kts 37°
2026-05-05 20:16 59.39687 9.48651 4025 ft 107 kts
2026-05-05 20:17 59.40393 9.48536 4023 ft 100 kts 339°
2026-05-05 20:17 59.40976 9.47811 4024 ft 100 kts 322°
2026-05-05 20:17 59.41520 9.46954 4022 ft 100 kts 321°
2026-05-05 20:17 59.42078 9.46069 4023 ft 107 kts 322°
2026-05-05 20:18 59.42683 9.45113 4028 ft 115 kts 322°
2026-05-05 20:18 59.43318 9.44114 3976 ft 119 kts 322°
2026-05-05 20:18 59.43969 9.43092 3824 ft 121 kts 322°
2026-05-05 20:18 59.44628 9.42059 3668 ft 121 kts 322°
2026-05-05 20:19 59.45278 9.41038 3527 ft 114 kts 322°
2026-05-05 20:19 59.45874 9.40097 3453 ft 112 kts 322°
2026-05-05 20:19 59.46492 9.39123 3271 ft 115 kts 322°
2026-05-05 20:19 59.47118 9.38139 3073 ft 115 kts 322°
2026-05-05 20:20 59.47741 9.37157 2861 ft 113 kts 322°
2026-05-05 20:20 59.48337 9.36217 2691 ft 110 kts 322°
2026-05-05 20:20 59.48930 9.35279 2502 ft 107 kts 322°
2026-05-05 20:20 59.49495 9.34384 2323 ft 101 kts 321°
2026-05-05 20:21 59.50027 9.33538 2155 ft 97 kts 321°
2026-05-05 20:21 59.50536 9.32727 1985 ft 92 kts 321°
2026-05-05 20:21 59.51037 9.31926 1820 ft 92 kts 321°
2026-05-05 20:21 59.51515 9.31165 1665 ft 82 kts 320°
2026-05-05 20:22 59.51937 9.30480 1511 ft 78 kts 319°
2026-05-05 20:22 59.52358 9.29784 1358 ft 78 kts 320°
2026-05-05 20:22 59.52770 9.29119 1217 ft 76 kts 320°
2026-05-05 20:22 59.53158 9.28503 1086 ft 71 kts 321°
2026-05-05 20:23 59.53538 9.27912 963 ft 69 kts 319°
2026-05-05 20:23 59.53904 9.27307 843 ft 69 kts 317°
2026-05-05 20:23 59.54266 9.26683 737 ft 69 kts 317°
2026-05-05 20:23 59.54619 9.26049 644 ft 69 kts 315°
2026-05-05 20:24 59.54943 9.25355 540 ft 69 kts 310°
2026-05-05 20:24 59.55240 9.24614 435 ft 69 kts 307°
2026-05-05 20:24 59.55543 9.23858 335 ft 71 kts 306°
2026-05-05 20:24 59.55844 9.23073 235 ft 72 kts 307°
2026-05-05 20:25 59.56148 9.22289 134 ft 67 kts 309°
2026-05-05 20:25 59.56338 9.21779 149 ft 12 kts 303°
2026-05-05 20:25 59.56377 9.21789 144 ft 5 kts 36°
2026-05-05 20:25 59.56399 9.21821 145 ft 0 kts 36°
2026-05-05 20:26 59.56400 9.21823 146 ft 0 kts 31°
2026-05-05 20:26 59.56405 9.21828 149 ft 5 kts 31°
2026-05-05 20:26 59.56437 9.21877 144 ft 7 kts 32°
2026-05-05 20:27 59.56472 9.21890 152 ft 5 kts 317°
2026-05-05 20:27 59.56493 9.21838 152 ft 6 kts 306°
2026-05-05 20:27 59.56512 9.21786 152 ft 2 kts 308°
2026-05-05 20:27 59.56513 9.21784 152 ft 0 kts 310°